Location: Saint-Gilles les Bains
(21.0539°S, 55.2287°E)
Time: 04:27:32
(UTC+04:00)

Hubble Space Telescope - Visible Passes

Search period start: 17 June 2021 00:00
Search period end: 27 June 2021 00:00
Orbit: 535 x 539 km, 28.5° (Epoch: 16 June)

Date Brightness Start Highest point End Pass type
(mag) Time Alt. Az. Time Alt. Az. Time Alt. Az.
17 Jun 3.7 04:29:59 11° SE 04:29:59 11° SE 04:30:12 10° ESE visible
17 Jun 1.9 06:05:18 15° SW 06:08:10 32° S 06:11:56 10° ESE visible
18 Jun 1.7 05:55:00 20° SW 05:57:19 35° S 06:01:10 10° ESE visible
19 Jun 1.6 05:44:41 26° SW 05:46:27 40° SSE 05:50:23 10° E visible
20 Jun 1.3 05:34:23 35° SSW 05:35:34 47° SSE 05:39:36 10° E visible
21 Jun 1.0 05:24:05 50° SSW 05:24:40 56° SSE 05:28:46 10° E visible
22 Jun 0.8 05:13:48 69° SSE 05:13:48 69° SSE 05:17:55 10° ENE visible
23 Jun 1.2 05:03:32 60° ENE 05:03:32 60° ENE 05:07:00 10° ENE visible
24 Jun 2.0 04:53:18 39° NE 04:53:18 39° NE 04:56:02 10° ENE visible
24 Jun 2.9 06:30:10 10° WNW 06:32:49 16° NNW 06:35:27 10° N visible
25 Jun 2.8 04:43:05 25° NE 04:43:05 25° NE 04:45:00 10° NE visible
25 Jun 3.1 06:20:09 10° NW 06:21:48 12° NNW 06:23:27 10° N visible
25 Jun 3.5 20:00:06 10° NNW 20:00:40 12° NNW 20:00:40 12° NNW visible
26 Jun 3.4 04:32:52 16° NE 04:32:52 16° NE 04:33:53 10° NE visible
26 Jun 2.9 19:48:42 10° NNW 19:50:28 20° NNW 19:50:28 20° NNW visible
